578  
ASUS41 KGYX 150710  
RWRGYX  
WEATHER ROUNDUP FOR MAINE AND NEW HAMPSHIRE  
NATIONAL WEATHER SERVICE GRAY ME  
300 AM EDT SUN SEP 15 2019  
 
MEZ002-005-006-010-012-015-018-020-021-024-026-027-029-150800-  
MAINE  
 
CITY SKY/WX TMP DP RH WIND PRES REMARKS
 
PORTLAND FAIR 61 59 93 S5 30.09S  
SANFORD CLOUDY 62 62 100 SW3 30.10F FOG  
BAR HARBOR CLOUDY 60 59 96 SW7 30.07F  
WISCASSET CLOUDY 59 58 96 CALM 30.08F FOG  
ROCKLAND CLOUDY 61 61 100 SW9 30.07F FOG  
FRYEBURG FAIR 59 57 93 SW6 30.08S  
LEWISTONAUBURN LGT RAIN 55 55 100 CALM 30.07S VSB 1/2  
AUGUSTA CLOUDY 61 61 100 SW3 30.08S  
WATERVILLE CLOUDY 61 60 97 SW5 30.04F  
BANGOR CLOUDY 62 60 93 S5 30.05F  
GREENVILLE N/A 55 55 100 CALM 30.01F  
MILLINOCKET CLOUDY 60 58 92 VRB5 30.03S  
HOULTON CLOUDY 60 57 89 SW8 29.99F  
PRESQUE ISLE CLOUDY 58 56 93 S13 29.97F  
FRENCHVILLE FOG 54 54 100 SE5 29.93F VSB 1/4  
CARIBOU CLOUDY 58 55 90 SW5 29.95F  

 
 
NHZ002-005-008-009-011-012-014-150800-  
NEW HAMPSHIRE  
 
CITY SKY/WX TMP DP RH WIND PRES REMARKS
 
PORTSMOUTH CLOUDY 65 64 97 W6 30.09F  
ROCHESTER CLOUDY 62 60 93 CALM 30.09F FOG  
NASHUA FOG 60 60 100 CALM 30.12S VSB 1/2  
MANCHESTER FOG 63 62 97 CALM 30.10S VSB 1/2  
CONCORD FOG 57 56 96 S3 30.11S VSB 1/4  
LACONIA FAIR 58 58 100 CALM 30.10F  
PLYMOUTH FOG 53 52 97 CALM 30.10F VSB 1/4  
BERLIN FAIR 52 50 93 CALM 30.08S FOG  
WHITEFIELD FAIR 55 54 96 W3 30.10S FOG  
JAFFREY FAIR 63 60 90 VRB5 30.14F  
KEENE CLOUDY 61 61 100 S5 30.13S  
LEBANON FAIR 57 54 89 NE7 30.11S FOG  
MT WASHINGTON LGT RAIN 43 43 100 W61G74 N/A VSB 1/16  

 
 
VTZ005-007-008-150800-  
VERMONT  
 
CITY SKY/WX TMP DP RH WIND PRES REMARKS
 
ST JOHNSBURY N/A 56 55 97 MISG 30.09R  
MONTPELIER FAIR 54 52 93 CALM 30.15R  
BURLINGTON FAIR 62 52 69 CALM 30.10F  

 
 
MAZ007-012-024-CTZ003-RIZ002-NYZ038-NYZ072-150800-  
SOUTHERN NEW ENGLAND AND NY  
 
CITY SKY/WX TMP DP RH WIND PRES REMARKS
 
BOSTON FAIR 68 64 87 SW9 30.11F  
WORCESTER MOCLDY 63 63 100 W10 30.15S  
NANTUCKET CLOUDY 67 65 93 S9 30.16F  
PROVIDENCE CLOUDY 68 68 100 SW5 30.14F  
HARTFORD FOG 62 61 96 SW5 30.13F VSB 1  
ALBANY FAIR 59 57 93 CALM 30.16S  
NEW YORK CITY CLOUDY 73 66 78 W3 30.14F  

 
 
ANZ081-ANZ082-ANZ150-NHZ014-MEZ023>029-150800-  
COASTAL MARINE OBSERVATIONS  
 
STATION/POSITION TIME TEMP WIND PRES WAVE
 
AIR SEA DIR/SP/G HT/PER  
(UTC) (F) (DEG/KT/KT) (MB) (FT/S)  
MOUNT DESERT ROC 0700 200/ 19/ 22 1018.3F  
MATINICUS ROCK 0650 60 1018.2F  
ISLE OF SHOALS 0600 65 230/ 11/ 12 1019.1F  
JEFFREYS LEDGE 0638 63 N/A 3/ 9  
CASHES LEDGE BUO 0650 62 60 220/ 14/ 16 1019.4F 4/ 5  
GEORGES BANK BUO 0650 62 58 1023.8F 4/ 9  

 
   
............KEY...........
 
 
WCI - WIND CHILL  
TC - TEMPERATURE IN CELSIUS  
VSB - VISIBILITY
IN MILES  
HX - HEAT INDEX  
FAIR- INDICATES FEW OR NO CLOUDS BELOW 12,000 FT, WITH NO  
SIGNIFICANT WEATHER AND/OR S TO VISIBILITY.  
 
 
 
CLICK HERE TO GO TO PREVIOUS BULLETINS.

The Nexlab ME Page
The Nexlab NH Page Main Text Page